Location: Fort Wayne
(41.1310°N, 85.1290°W)
Time: 20:09:48
(UTC-04:00)

Gbstr 26 Del rocket - Visible Passes

Search period start: 23 June 2017 00:00
Search period end: 03 July 2017 00:00
Orbit: 493 x 1266 km, 51.8° (Epoch: 22 June)

Date Brightness Start Highest point End Pass type
(mag) Time Alt. Az. Time Alt. Az. Time Alt. Az.
24 Jun 2.6 05:27:50 10° SW 05:31:34 83° SE 05:35:26 10° NE visible
25 Jun 4.9 03:40:57 13° SE 03:40:57 13° SE 03:42:46 10° E visible
25 Jun 2.7 05:23:32 10° WSW 05:27:16 74° NW 05:31:07 10° NE visible
26 Jun 4.6 03:36:43 18° SE 03:36:43 18° SE 03:39:07 10° E visible
26 Jun 3.0 05:19:18 10° WSW 05:22:58 57° NNW 05:26:47 10° NE visible
27 Jun 4.2 03:32:27 24° SE 03:32:27 24° SE 03:35:11 10° ENE visible
27 Jun 3.4 05:15:07 10° WSW 05:18:43 44° NNW 05:22:25 10° NE visible
28 Jun 3.7 03:28:08 32° ESE 03:28:08 32° ESE 03:31:06 10° ENE visible
28 Jun 3.8 05:11:00 10° W 05:14:28 36° NNW 05:18:03 10° NE visible
29 Jun 3.3 03:23:47 42° ESE 03:23:47 42° ESE 03:26:56 10° ENE visible
29 Jun 4.1 05:06:54 10° W 05:10:15 30° NNW 05:13:41 10° NE visible
30 Jun 2.9 03:19:24 57° ESE 03:19:24 57° ESE 03:22:42 10° ENE visible
30 Jun 4.4 05:02:51 10° W 05:06:03 26° NNW 05:09:19 10° NE visible
01 Jul 2.7 03:14:59 73° E 03:14:59 73° E 03:18:25 10° NE visible
01 Jul 4.7 04:58:50 10° WNW 05:01:51 23° NNW 05:04:57 10° NE visible
02 Jul 2.7 03:10:31 74° N 03:10:31 74° N 03:14:06 10° NE visible
02 Jul 4.9 04:54:49 10° WNW 04:57:41 20° NNW 05:00:36 10° NE visible
